Time,TemperatureF,DewpointF,PressureIn,WindDirection,WindDirectionDegrees,WindSpeedMPH,WindSpeedGustMPH,Humidity,HourlyPrecipIn,Conditions,Clouds,dailyrainin,SoftwareType,DateUTC
2013-02-21 00:00:00,17.6,13.8,30.27,NW,321,4.0,6.0,85,0.00,,,0.00,meteohub,2013-02-21 05:00:00,
2013-02-21 00:01:00,17.8,14.0,30.27,NW,315,3.0,6.0,85,0.00,,,0.00,meteohub,2013-02-21 05:01:00,
2013-02-21 00:02:00,17.6,13.8,30.27,NW,324,3.0,6.0,85,0.00,,,0.00,meteohub,2013-02-21 05:02:00,
2013-02-21 00:07:00,17.6,14.2,30.27,NW,326,2.0,6.0,86,0.00,,,0.00,meteohub,2013-02-21 05:07:00,
2013-02-21 00:12:00,17.4,14.2,30.27,NW,323,2.0,5.0,87,0.00,,,0.00,meteohub,2013-02-21 05:12:00,
2013-02-21 00:17:00,17.4,14.2,30.26,NNW,335,2.0,5.0,87,0.00,,,0.00,meteohub,2013-02-21 05:17:00,
2013-02-21 00:22:00,17.6,14.4,30.26,NNW,328,3.0,5.0,87,0.00,,,0.00,meteohub,2013-02-21 05:22:00,
2013-02-21 00:27:00,17.6,14.7,30.26,NW,320,4.0,6.0,88,0.00,,,0.00,meteohub,2013-02-21 05:27:00,
2013-02-21 00:32:00,17.6,14.7,30.26,NW,318,3.0,7.0,88,0.00,,,0.00,meteohub,2013-02-21 05:32:00,
2013-02-21 00:37:00,17.6,14.9,30.26,NW,326,3.0,7.0,89,0.00,,,0.00,meteohub,2013-02-21 05:37:00,
2013-02-21 00:42:00,17.6,14.9,30.26,NNW,327,4.0,6.0,89,0.00,,,0.00,meteohub,2013-02-21 05:42:00,
2013-02-21 00:47:00,17.6,14.9,30.26,NNW,328,2.0,5.0,89,0.00,,,0.00,meteohub,2013-02-21 05:47:00,
2013-02-21 00:53:00,17.6,14.9,30.26,NW,304,3.0,5.0,89,0.00,,,0.00,meteohub,2013-02-21 05:53:00,
2013-02-21 00:58:00,17.8,15.1,30.26,NNW,327,5.0,5.0,89,0.00,,,0.00,meteohub,2013-02-21 05:58:00,
2013-02-21 01:04:00,17.8,15.1,30.26,NNW,340,2.0,5.0,89,0.00,,,0.00,meteohub,2013-02-21 06:04:00,
2013-02-21 01:09:00,17.8,15.1,30.26,NNW,329,5.0,5.0,89,0.00,,,0.00,meteohub,2013-02-21 06:09:00,
2013-02-21 01:14:00,18.0,15.3,30.26,NNW,329,3.0,5.0,89,0.00,,,0.00,meteohub,2013-02-21 06:14:00,
2013-02-21 01:19:00,18.0,15.4,30.26,NW,325,2.0,6.0,90,0.00,,,0.00,meteohub,2013-02-21 06:19:00,
2013-02-21 01:24:00,18.0,15.4,30.26,North,350,2.0,7.0,90,0.00,,,0.00,meteohub,2013-02-21 06:24:00,
2013-02-21 01:29:00,18.1,15.6,30.26,North,355,7.0,7.0,90,0.00,,,0.00,meteohub,2013-02-21 06:29:00,
2013-02-21 01:34:00,18.1,15.6,30.26,North,355,1.0,7.0,90,0.00,,,0.00,meteohub,2013-02-21 06:34:00,
2013-02-21 01:39:00,18.1,15.6,30.26,NNE,14,5.0,9.0,90,0.00,,,0.00,meteohub,2013-02-21 06:39:00,
2013-02-21 01:44:00,18.3,15.8,30.27,NNE,25,3.0,9.0,90,0.00,,,0.00,meteohub,2013-02-21 06:44:00,
2013-02-21 01:49:00,18.3,15.8,30.27,NW,323,5.0,9.0,90,0.00,,,0.00,meteohub,2013-02-21 06:49:00,
2013-02-21 01:54:00,18.3,15.6,30.27,NNW,331,5.0,10.0,89,0.00,,,0.00,meteohub,2013-02-21 06:54:00,
2013-02-21 01:59:00,18.1,15.4,30.27,NNW,332,2.0,10.0,89,0.00,,,0.00,meteohub,2013-02-21 06:59:00,
2013-02-21 02:04:00,18.1,14.9,30.27,NNE,22,5.0,10.0,87,0.00,,,0.00,meteohub,2013-02-21 07:04:00,
2013-02-21 02:09:00,18.0,14.5,30.27,NW,321,4.0,12.0,86,0.00,,,0.00,meteohub,2013-02-21 07:09:00,
2013-02-21 02:15:00,18.0,13.6,30.28,NNW,339,6.0,12.0,83,0.00,,,0.00,meteohub,2013-02-21 07:15:00,
2013-02-21 02:20:00,18.0,13.6,30.28,NNW,348,2.0,12.0,83,0.00,,,0.00,meteohub,2013-02-21 07:20:00,
2013-02-21 02:25:00,17.8,13.3,30.28,NNW,348,4.0,12.0,82,0.00,,,0.00,meteohub,2013-02-21 07:25:00,
2013-02-21 02:30:00,17.8,12.9,30.28,NNW,336,6.0,12.0,81,0.00,,,0.00,meteohub,2013-02-21 07:30:00,
2013-02-21 02:35:00,17.8,12.9,30.28,NNE,23,5.0,8.0,81,0.00,,,0.00,meteohub,2013-02-21 07:35:00,
2013-02-21 02:40:00,17.8,12.7,30.28,North,355,3.0,10.0,80,0.00,,,0.00,meteohub,2013-02-21 07:40:00,
2013-02-21 02:45:00,17.8,12.7,30.28,NNW,338,3.0,10.0,80,0.00,,,0.00,meteohub,2013-02-21 07:45:00,
2013-02-21 02:50:00,17.8,12.7,30.29,NNE,14,2.0,10.0,80,0.00,,,0.00,meteohub,2013-02-21 07:50:00,
2013-02-21 02:55:00,17.8,12.7,30.28,NNW,335,3.0,10.0,80,0.00,,,0.00,meteohub,2013-02-21 07:55:00,
2013-02-21 03:00:00,17.8,12.9,30.28,NNE,15,3.0,9.0,81,0.00,,,0.00,meteohub,2013-02-21 08:00:00,
2013-02-21 03:05:00,17.6,12.7,30.28,NNW,348,2.0,9.0,81,0.00,,,0.00,meteohub,2013-02-21 08:05:00,
2013-02-21 03:10:00,17.4,12.6,30.28,North,355,2.0,9.0,81,0.00,,,0.00,meteohub,2013-02-21 08:10:00,
2013-02-21 03:15:00,17.4,12.6,30.28,NNE,18,5.0,9.0,81,0.00,,,0.00,meteohub,2013-02-21 08:15:00,
2013-02-21 03:20:00,17.4,12.6,30.28,NNW,340,5.0,12.0,81,0.00,,,0.00,meteohub,2013-02-21 08:20:00,
2013-02-21 03:25:00,17.4,12.6,30.29,NE,36,2.0,12.0,81,0.00,,,0.00,meteohub,2013-02-21 08:25:00,
2013-02-21 03:30:00,17.4,12.6,30.28,North,355,2.0,10.0,81,0.00,,,0.00,meteohub,2013-02-21 08:30:00,
2013-02-21 03:36:00,17.2,12.4,30.28,North,0,6.0,10.0,81,0.00,,,0.00,meteohub,2013-02-21 08:36:00,
2013-02-21 03:41:00,17.2,12.4,30.28,North,5,4.0,10.0,81,0.00,,,0.00,meteohub,2013-02-21 08:41:00,
2013-02-21 03:46:00,17.2,12.4,30.28,North,355,3.0,10.0,81,0.00,,,0.00,meteohub,2013-02-21 08:46:00,
2013-02-21 03:51:00,17.2,12.7,30.28,NNW,339,5.0,10.0,82,0.00,,,0.00,meteohub,2013-02-21 08:51:00,
2013-02-21 03:56:00,17.2,12.9,30.28,NNW,342,4.0,9.0,83,0.00,,,0.00,meteohub,2013-02-21 08:56:00,
2013-02-21 04:01:00,17.2,12.9,30.28,NNW,348,4.0,9.0,83,0.00,,,0.00,meteohub,2013-02-21 09:01:00,
2013-02-21 04:06:00,17.2,12.9,30.28,NNE,17,5.0,9.0,83,0.00,,,0.00,meteohub,2013-02-21 09:06:00,
2013-02-21 04:11:00,17.2,12.9,30.28,NW,325,3.0,10.0,83,0.00,,,0.00,meteohub,2013-02-21 09:11:00,
2013-02-21 04:16:00,17.2,12.9,30.28,North,349,3.0,10.0,83,0.00,,,0.00,meteohub,2013-02-21 09:16:00,
2013-02-21 04:21:00,17.2,12.9,30.28,NNE,32,2.0,10.0,83,0.00,,,0.00,meteohub,2013-02-21 09:21:00,
2013-02-21 04:26:00,17.2,13.3,30.28,NNW,346,3.0,8.0,84,0.00,,,0.00,meteohub,2013-02-21 09:26:00,
2013-02-21 04:31:00,17.2,13.3,30.28,North,355,5.0,8.0,84,0.00,,,0.00,meteohub,2013-02-21 09:31:00,
2013-02-21 04:36:00,17.1,13.3,30.28,NE,34,3.0,8.0,85,0.00,,,0.00,meteohub,2013-02-21 09:36:00,
2013-02-21 04:41:00,17.1,13.3,30.29,NW,321,4.0,8.0,85,0.00,,,0.00,meteohub,2013-02-21 09:41:00,
2013-02-21 04:46:00,17.1,13.6,30.29,ENE,57,2.0,8.0,86,0.00,,,0.00,meteohub,2013-02-21 09:46:00,
2013-02-21 04:51:00,16.9,13.5,30.29,NNE,18,3.0,8.0,86,0.00,,,0.00,meteohub,2013-02-21 09:51:00,
2013-02-21 04:57:00,16.7,13.3,30.29,North,355,5.0,11.0,86,0.00,,,0.00,meteohub,2013-02-21 09:57:00,
2013-02-21 05:02:00,16.5,13.1,30.30,ENE,63,3.0,11.0,86,0.00,,,0.00,meteohub,2013-02-21 10:02:00,
2013-02-21 05:07:00,16.3,13.1,30.30,North,0,2.0,11.0,87,0.00,,,0.00,meteohub,2013-02-21 10:07:00,
2013-02-21 05:12:00,16.3,13.1,30.30,North,355,5.0,8.0,87,0.00,,,0.00,meteohub,2013-02-21 10:12:00,
2013-02-21 05:17:00,16.3,13.1,30.31,ENE,76,2.0,8.0,87,0.00,,,0.00,meteohub,2013-02-21 10:17:00,
2013-02-21 05:22:00,16.2,12.9,30.31,NNW,345,5.0,8.0,87,0.00,,,0.00,meteohub,2013-02-21 10:22:00,
2013-02-21 05:27:00,16.2,12.9,30.31,North,355,4.0,6.0,87,0.00,,,0.00,meteohub,2013-02-21 10:27:00,
2013-02-21 05:32:00,16.2,12.9,30.31,NNW,345,4.0,6.0,87,0.00,,,0.00,meteohub,2013-02-21 10:32:00,
2013-02-21 05:37:00,16.2,12.9,30.31,NNE,12,2.0,9.0,87,0.00,,,0.00,meteohub,2013-02-21 10:37:00,
2013-02-21 05:42:00,16.2,12.9,30.31,NNE,12,2.0,9.0,87,0.00,,,0.00,meteohub,2013-02-21 10:42:00,
2013-02-21 05:47:00,16.2,12.9,30.32,NNE,22,3.0,9.0,87,0.00,,,0.00,meteohub,2013-02-21 10:47:00,
2013-02-21 05:52:00,16.2,12.9,30.32,NNE,13,5.0,9.0,87,0.00,,,0.00,meteohub,2013-02-21 10:52:00,
2013-02-21 05:57:00,16.2,12.9,30.32,NNW,342,7.0,9.0,87,0.00,,,0.00,meteohub,2013-02-21 10:57:00,
2013-02-21 06:02:00,16.2,12.9,30.32,North,351,4.0,11.0,87,0.00,,,0.00,meteohub,2013-02-21 11:02:00,
2013-02-21 06:07:00,16.0,12.7,30.33,North,355,3.0,11.0,87,0.00,,,0.00,meteohub,2013-02-21 11:07:00,
2013-02-21 06:13:00,16.0,12.7,30.33,NNW,345,4.0,15.0,87,0.00,,,0.00,meteohub,2013-02-21 11:13:00,
2013-02-21 06:18:00,15.6,12.4,30.33,NNW,348,4.0,15.0,87,0.00,,,0.00,meteohub,2013-02-21 11:18:00,
2013-02-21 06:23:00,15.4,12.2,30.33,North,11,6.0,15.0,87,0.00,,,0.00,meteohub,2013-02-21 11:23:00,
2013-02-21 06:28:00,15.3,12.0,30.34,NE,52,5.0,11.0,87,0.00,,,0.00,meteohub,2013-02-21 11:28:00,
2013-02-21 06:33:00,15.1,11.7,30.34,NNE,22,3.0,11.0,86,0.00,,,0.00,meteohub,2013-02-21 11:33:00,
2013-02-21 06:38:00,14.9,11.5,30.34,NNE,28,4.0,11.0,86,0.00,,,0.00,meteohub,2013-02-21 11:38:00,
2013-02-21 06:43:00,14.7,11.3,30.35,NNW,335,2.0,10.0,86,0.00,,,0.00,meteohub,2013-02-21 11:43:00,
2013-02-21 06:48:00,14.7,11.1,30.35,NNE,26,2.0,9.0,85,0.00,,,0.00,meteohub,2013-02-21 11:48:00,
2013-02-21 06:53:00,14.7,11.1,30.35,North,351,1.0,9.0,85,0.00,,,0.00,meteohub,2013-02-21 11:53:00,
2013-02-21 06:58:00,14.5,10.9,30.35,NNW,336,8.0,9.0,85,0.00,,,0.00,meteohub,2013-02-21 11:58:00,
2013-02-21 07:03:00,14.5,10.6,30.35,NNW,334,3.0,10.0,84,0.00,,,0.00,meteohub,2013-02-21 12:03:00,
2013-02-21 07:08:00,14.5,10.9,30.35,North,5,5.0,10.0,85,0.00,,,0.00,meteohub,2013-02-21 12:08:00,
2013-02-21 07:13:00,14.4,10.8,30.35,NW,323,5.0,10.0,85,0.00,,,0.00,meteohub,2013-02-21 12:13:00,
2013-02-21 07:18:00,14.4,10.8,30.36,NW,322,5.0,11.0,85,0.00,,,0.00,meteohub,2013-02-21 12:18:00,
2013-02-21 07:23:00,14.4,10.8,30.36,NNW,345,3.0,11.0,85,0.00,,,0.00,meteohub,2013-02-21 12:23:00,
2013-02-21 07:29:00,14.4,10.8,30.36,NNW,334,5.0,11.0,85,0.00,,,0.00,meteohub,2013-02-21 12:29:00,
2013-02-21 07:34:00,14.4,10.4,30.36,NNW,344,3.0,9.0,84,0.00,,,0.00,meteohub,2013-02-21 12:34:00,
2013-02-21 07:39:00,14.4,10.8,30.36,North,0,4.0,9.0,85,0.00,,,0.00,meteohub,2013-02-21 12:39:00,
2013-02-21 07:44:00,14.4,10.8,30.37,North,355,5.0,9.0,85,0.00,,,0.00,meteohub,2013-02-21 12:44:00,
2013-02-21 07:49:00,14.4,10.8,30.37,NNW,339,3.0,9.0,85,0.00,,,0.00,meteohub,2013-02-21 12:49:00,
2013-02-21 07:54:00,14.5,10.9,30.37,North,5,7.0,9.0,85,0.00,,,0.00,meteohub,2013-02-21 12:54:00,
2013-02-21 07:59:00,14.5,10.9,30.38,NNW,333,5.0,9.0,85,0.00,,,0.00,meteohub,2013-02-21 12:59:00,
2013-02-21 08:04:00,14.7,11.1,30.38,NNW,344,2.0,9.0,85,0.00,,,0.00,meteohub,2013-02-21 13:04:00,
2013-02-21 08:09:00,14.7,11.1,30.38,NNW,340,5.0,9.0,85,0.00,,,0.00,meteohub,2013-02-21 13:09:00,
2013-02-21 08:14:00,14.7,11.1,30.38,NNE,13,3.0,8.0,85,0.00,,,0.00,meteohub,2013-02-21 13:14:00,
2013-02-21 08:19:00,14.9,11.5,30.39,North,355,5.0,9.0,86,0.00,,,0.00,meteohub,2013-02-21 13:19:00,
2013-02-21 08:24:00,15.1,11.7,30.39,NNE,13,2.0,10.0,86,0.00,,,0.00,meteohub,2013-02-21 13:24:00,
2013-02-21 08:29:00,15.3,11.8,30.40,North,355,3.0,10.0,86,0.00,,,0.00,meteohub,2013-02-21 13:29:00,
2013-02-21 08:34:00,15.4,12.2,30.40,NE,56,3.0,10.0,87,0.00,,,0.00,meteohub,2013-02-21 13:34:00,
2013-02-21 08:39:00,15.6,12.4,30.40,North,355,5.0,10.0,87,0.00,,,0.00,meteohub,2013-02-21 13:39:00,
2013-02-21 08:45:00,15.8,12.6,30.41,North,349,3.0,8.0,87,0.00,,,0.00,meteohub,2013-02-21 13:45:00,
2013-02-21 08:50:00,16.0,12.6,30.42,NNW,339,2.0,8.0,86,0.00,,,0.00,meteohub,2013-02-21 13:50:00,
2013-02-21 08:55:00,16.2,12.7,30.41,North,0,3.0,9.0,86,0.00,,,0.00,meteohub,2013-02-21 13:55:00,
2013-02-21 09:00:00,16.2,12.7,30.41,NE,51,7.0,9.0,86,0.00,,,0.00,meteohub,2013-02-21 14:00:00,
2013-02-21 09:05:00,16.3,12.9,30.41,East,80,3.0,9.0,86,0.00,,,0.00,meteohub,2013-02-21 14:05:00,
2013-02-21 09:10:00,16.5,13.1,30.41,NW,321,5.0,11.0,86,0.00,,,0.00,meteohub,2013-02-21 14:10:00,
2013-02-21 09:15:00,16.5,13.1,30.40,North,5,8.0,11.0,86,0.00,,,0.00,meteohub,2013-02-21 14:15:00,
2013-02-21 09:20:00,16.5,13.1,30.40,NNE,26,5.0,10.0,86,0.00,,,0.00,meteohub,2013-02-21 14:20:00,
2013-02-21 09:25:00,16.5,13.1,30.40,North,5,3.0,11.0,86,0.00,,,0.00,meteohub,2013-02-21 14:25:00,
2013-02-21 09:30:00,16.9,13.5,30.40,North,355,2.0,11.0,86,0.00,,,0.00,meteohub,2013-02-21 14:30:00,
2013-02-21 09:35:00,17.1,13.1,30.40,NNE,17,5.0,11.0,84,0.00,,,0.00,meteohub,2013-02-21 14:35:00,
2013-02-21 09:40:00,17.2,13.3,30.41,NNW,333,7.0,10.0,84,0.00,,,0.00,meteohub,2013-02-21 14:40:00,
2013-02-21 09:45:00,17.1,13.1,30.40,North,355,5.0,10.0,84,0.00,,,0.00,meteohub,2013-02-21 14:45:00,
2013-02-21 09:50:00,17.2,13.3,30.40,NNE,28,0.0,10.0,84,0.00,,,0.00,meteohub,2013-02-21 14:50:00,
2013-02-21 09:55:00,17.2,12.9,30.40,NNE,29,6.0,10.0,83,0.00,,,0.00,meteohub,2013-02-21 14:55:00,
2013-02-21 10:01:00,17.2,12.9,30.40,NNW,346,4.0,10.0,83,0.00,,,0.00,meteohub,2013-02-21 15:01:00,
2013-02-21 10:06:00,17.4,12.9,30.40,ENE,67,3.0,11.0,82,0.00,,,0.00,meteohub,2013-02-21 15:06:00,
2013-02-21 10:11:00,17.2,12.7,30.40,NW,309,5.0,12.0,82,0.00,,,0.00,meteohub,2013-02-21 15:11:00,
2013-02-21 10:16:00,17.2,12.7,30.40,NE,37,1.0,13.0,82,0.00,,,0.00,meteohub,2013-02-21 15:16:00,
2013-02-21 10:21:00,17.4,12.9,30.40,NE,38,9.0,13.0,82,0.00,,,0.00,meteohub,2013-02-21 15:21:00,
2013-02-21 10:26:00,17.2,12.4,30.40,NNE,12,5.0,13.0,81,0.00,,,0.00,meteohub,2013-02-21 15:26:00,
2013-02-21 10:31:00,17.6,12.6,30.41,NNE,32,4.0,12.0,80,0.00,,,0.00,meteohub,2013-02-21 15:31:00,
2013-02-21 10:36:00,17.8,12.9,30.40,NNE,33,6.0,12.0,81,0.00,,,0.00,meteohub,2013-02-21 15:36:00,
2013-02-21 10:41:00,18.1,13.1,30.40,NNE,21,0.0,8.0,80,0.00,,,0.00,meteohub,2013-02-21 15:41:00,
2013-02-21 10:46:00,18.1,12.4,30.40,NW,325,7.0,8.0,78,0.00,,,0.00,meteohub,2013-02-21 15:46:00,
2013-02-21 10:51:00,18.1,12.4,30.40,NNW,348,1.0,12.0,78,0.00,,,0.00,meteohub,2013-02-21 15:51:00,
2013-02-21 10:57:00,18.1,12.7,30.41,North,5,5.0,12.0,79,0.00,,,0.00,meteohub,2013-02-21 15:57:00,
2013-02-21 11:02:00,18.1,12.2,30.41,NNE,33,2.0,12.0,77,0.00,,,0.00,meteohub,2013-02-21 16:02:00,
2013-02-21 11:07:00,18.3,12.6,30.41,ENE,67,7.0,14.0,78,0.00,,,0.00,meteohub,2013-02-21 16:07:00,
2013-02-21 11:12:00,18.1,12.2,30.42,NNW,340,4.0,14.0,77,0.00,,,0.00,meteohub,2013-02-21 16:12:00,
2013-02-21 11:17:00,18.1,12.2,30.41,North,5,2.0,11.0,77,0.00,,,0.00,meteohub,2013-02-21 16:17:00,
2013-02-21 11:22:00,18.3,12.6,30.41,ENE,70,3.0,9.0,78,0.00,,,0.00,meteohub,2013-02-21 16:22:00,
2013-02-21 11:27:00,18.7,12.9,30.41,ENE,67,4.0,9.0,78,0.00,,,0.00,meteohub,2013-02-21 16:27:00,
2013-02-21 11:32:00,18.3,12.4,30.42,North,5,1.0,10.0,77,0.00,,,0.00,meteohub,2013-02-21 16:32:00,
2013-02-21 11:37:00,18.3,12.6,30.42,NNW,348,3.0,10.0,78,0.00,,,0.00,meteohub,2013-02-21 16:37:00,
2013-02-21 11:42:00,18.5,13.1,30.42,NNW,348,2.0,10.0,79,0.00,,,0.00,meteohub,2013-02-21 16:42:00,
2013-02-21 11:47:00,18.5,13.1,30.43,NE,45,2.0,7.0,79,0.00,,,0.00,meteohub,2013-02-21 16:47:00,
2013-02-21 11:52:00,18.7,13.3,30.43,North,350,4.0,7.0,79,0.00,,,0.00,meteohub,2013-02-21 16:52:00,
2013-02-21 11:57:00,18.5,12.7,30.43,NNW,334,4.0,7.0,78,0.00,,,0.00,meteohub,2013-02-21 16:57:00,
2013-02-21 12:02:00,18.5,13.1,30.43,NW,309,4.0,8.0,79,0.00,,,0.00,meteohub,2013-02-21 17:02:00,
2013-02-21 12:07:00,18.3,12.9,30.42,NE,34,2.0,8.0,79,0.00,,,0.00,meteohub,2013-02-21 17:07:00,
2013-02-21 12:12:00,18.5,13.1,30.42,NNW,343,3.0,10.0,79,0.00,,,0.00,meteohub,2013-02-21 17:12:00,
2013-02-21 12:17:00,18.9,13.5,30.42,NW,317,1.0,11.0,79,0.00,,,0.00,meteohub,2013-02-21 17:17:00,
2013-02-21 12:22:00,18.9,13.1,30.42,NNW,335,6.0,11.0,78,0.00,,,0.00,meteohub,2013-02-21 17:22:00,
2013-02-21 12:27:00,18.7,12.9,30.42,NNW,337,4.0,11.0,78,0.00,,,0.00,meteohub,2013-02-21 17:27:00,
2013-02-21 12:32:00,18.9,13.1,30.43,NNW,338,3.0,8.0,78,0.00,,,0.00,meteohub,2013-02-21 17:32:00,
2013-02-21 12:37:00,18.9,13.1,30.42,North,0,4.0,8.0,78,0.00,,,0.00,meteohub,2013-02-21 17:37:00,
2013-02-21 12:42:00,18.9,13.1,30.41,NE,34,3.0,8.0,78,0.00,,,0.00,meteohub,2013-02-21 17:42:00,
2013-02-21 12:47:00,19.0,13.6,30.41,NNW,330,3.0,8.0,79,0.00,,,0.00,meteohub,2013-02-21 17:47:00,
2013-02-21 12:52:00,19.0,13.3,30.41,NNW,337,2.0,8.0,78,0.00,,,0.00,meteohub,2013-02-21 17:52:00,
2013-02-21 12:57:00,19.0,13.3,30.40,NNW,343,3.0,8.0,78,0.00,,,0.00,meteohub,2013-02-21 17:57:00,
2013-02-21 13:02:00,19.2,13.8,30.40,North,355,1.0,8.0,79,0.00,,,0.00,meteohub,2013-02-21 18:02:00,
2013-02-21 13:07:00,19.4,13.6,30.41,North,355,4.0,8.0,78,0.00,,,0.00,meteohub,2013-02-21 18:07:00,
2013-02-21 13:12:00,19.4,13.5,30.40,NW,317,5.0,7.0,77,0.00,,,0.00,meteohub,2013-02-21 18:12:00,
2013-02-21 13:17:00,19.2,13.8,30.40,NNW,342,3.0,7.0,79,0.00,,,0.00,meteohub,2013-02-21 18:17:00,
2013-02-21 13:22:00,19.4,13.5,30.40,North,0,2.0,7.0,77,0.00,,,0.00,meteohub,2013-02-21 18:22:00,
2013-02-21 13:27:00,19.4,13.5,30.39,NNW,348,1.0,7.0,77,0.00,,,0.00,meteohub,2013-02-21 18:27:00,
2013-02-21 13:32:00,19.8,13.6,30.40,NE,55,0.0,5.0,77,0.00,,,0.00,meteohub,2013-02-21 18:32:00,
2013-02-21 13:37:00,19.9,13.6,30.40,NNE,25,2.0,8.0,76,0.00,,,0.00,meteohub,2013-02-21 18:37:00,
2013-02-21 13:42:00,19.9,13.6,30.40,NE,45,3.0,8.0,76,0.00,,,0.00,meteohub,2013-02-21 18:42:00,
2013-02-21 13:47:00,19.9,13.3,30.40,NNW,343,2.0,8.0,75,0.00,,,0.00,meteohub,2013-02-21 18:47:00,
2013-02-21 13:52:00,19.8,13.1,30.41,North,5,2.0,8.0,75,0.00,,,0.00,meteohub,2013-02-21 18:52:00,
2013-02-21 13:57:00,19.8,13.5,30.42,East,82,1.0,6.0,76,0.00,,,0.00,meteohub,2013-02-21 18:57:00,
2013-02-21 14:02:00,19.8,13.5,30.42,NNE,18,5.0,7.0,76,0.00,,,0.00,meteohub,2013-02-21 19:02:00,
2013-02-21 14:07:00,19.8,13.5,30.42,North,355,3.0,7.0,76,0.00,,,0.00,meteohub,2013-02-21 19:07:00,
2013-02-21 14:12:00,19.8,13.5,30.42,ENE,72,4.0,7.0,76,0.00,,,0.00,meteohub,2013-02-21 19:12:00,
2013-02-21 14:17:00,19.8,13.6,30.42,NNE,24,2.0,7.0,77,0.00,,,0.00,meteohub,2013-02-21 19:17:00,
2013-02-21 14:22:00,19.6,13.8,30.42,NNW,337,5.0,6.0,78,0.00,,,0.00,meteohub,2013-02-21 19:22:00,
2013-02-21 14:27:00,19.6,13.8,30.42,NNW,334,2.0,6.0,78,0.00,,,0.00,meteohub,2013-02-21 19:27:00,
2013-02-21 14:32:00,19.6,13.8,30.42,NNE,15,3.0,6.0,78,0.00,,,0.00,meteohub,2013-02-21 19:32:00,
2013-02-21 14:37:00,19.6,13.8,30.42,North,349,5.0,6.0,78,0.00,,,0.00,meteohub,2013-02-21 19:37:00,
2013-02-21 14:42:00,19.2,13.5,30.42,NNW,341,3.0,6.0,78,0.00,,,0.00,meteohub,2013-02-21 19:42:00,
2013-02-21 14:47:00,19.2,13.5,30.42,North,0,2.0,6.0,78,0.00,,,0.00,meteohub,2013-02-21 19:47:00,
2013-02-21 14:52:00,19.2,13.5,30.41,NW,321,2.0,6.0,78,0.00,,,0.00,meteohub,2013-02-21 19:52:00,
2013-02-21 14:57:00,19.2,13.5,30.41,North,11,2.0,6.0,78,0.00,,,0.00,meteohub,2013-02-21 19:57:00,
2013-02-21 15:02:00,19.2,13.8,30.41,ENE,63,3.0,6.0,79,0.00,,,0.00,meteohub,2013-02-21 20:02:00,
2013-02-21 15:07:00,19.4,13.6,30.41,NNE,25,1.0,5.0,78,0.00,,,0.00,meteohub,2013-02-21 20:07:00,
2013-02-21 15:12:00,19.6,13.8,30.40,NE,45,5.0,5.0,78,0.00,,,0.00,meteohub,2013-02-21 20:12:00,
2013-02-21 15:17:00,19.6,13.8,30.41,North,5,2.0,7.0,78,0.00,,,0.00,meteohub,2013-02-21 20:17:00,
2013-02-21 15:22:00,19.6,13.8,30.41,ENE,61,2.0,7.0,78,0.00,,,0.00,meteohub,2013-02-21 20:22:00,
2013-02-21 15:27:00,19.6,14.2,30.41,NNW,344,0.0,7.0,79,0.00,,,0.00,meteohub,2013-02-21 20:27:00,
2013-02-21 15:32:00,19.8,14.5,30.41,NE,46,0.0,5.0,80,0.00,,,0.00,meteohub,2013-02-21 20:32:00,
2013-02-21 15:37:00,19.8,14.0,30.40,NNW,330,2.0,5.0,78,0.00,,,0.00,meteohub,2013-02-21 20:37:00,
2013-02-21 15:42:00,19.6,13.8,30.41,ENE,74,2.0,7.0,78,0.00,,,0.00,meteohub,2013-02-21 20:42:00,
2013-02-21 15:47:00,19.6,13.8,30.40,NNE,32,1.0,7.0,78,0.00,,,0.00,meteohub,2013-02-21 20:47:00,
2013-02-21 15:52:00,19.8,14.0,30.40,East,82,1.0,7.0,78,0.00,,,0.00,meteohub,2013-02-21 20:52:00,
2013-02-21 15:57:00,19.8,13.6,30.39,ESE,102,2.0,5.0,77,0.00,,,0.00,meteohub,2013-02-21 20:57:00,
2013-02-21 16:02:00,19.6,13.8,30.38,ENE,73,2.0,5.0,78,0.00,,,0.00,meteohub,2013-02-21 21:02:00,
2013-02-21 16:07:00,19.4,13.6,30.38,East,92,1.0,6.0,78,0.00,,,0.00,meteohub,2013-02-21 21:07:00,
2013-02-21 16:12:00,19.4,13.6,30.38,East,82,2.0,6.0,78,0.00,,,0.00,meteohub,2013-02-21 21:12:00,
2013-02-21 16:17:00,19.4,13.6,30.38,East,82,1.0,5.0,78,0.00,,,0.00,meteohub,2013-02-21 21:17:00,
2013-02-21 16:22:00,19.4,13.6,30.38,East,79,1.0,5.0,78,0.00,,,0.00,meteohub,2013-02-21 21:22:00,
2013-02-21 16:27:00,19.4,13.6,30.38,East,88,1.0,5.0,78,0.00,,,0.00,meteohub,2013-02-21 21:27:00,
2013-02-21 16:32:00,19.2,13.3,30.40,NNE,24,1.0,3.0,77,0.00,,,0.00,meteohub,2013-02-21 21:32:00,
2013-02-21 16:37:00,19.2,13.3,30.40,NE,51,0.0,5.0,77,0.00,,,0.00,meteohub,2013-02-21 21:37:00,
2013-02-21 16:42:00,19.2,13.3,30.39,East,93,5.0,5.0,77,0.00,,,0.00,meteohub,2013-02-21 21:42:00,
2013-02-21 16:47:00,19.0,13.1,30.40,ENE,77,0.0,5.0,77,0.00,,,0.00,meteohub,2013-02-21 21:47:00,
2013-02-21 16:52:00,19.2,13.5,30.40,ENE,77,0.0,5.0,78,0.00,,,0.00,meteohub,2013-02-21 21:52:00,
2013-02-21 16:57:00,19.2,13.3,30.40,ENE,63,3.0,5.0,77,0.00,,,0.00,meteohub,2013-02-21 21:57:00,
2013-02-21 17:02:00,19.0,13.1,30.41,SE,125,1.0,5.0,77,0.00,,,0.00,meteohub,2013-02-21 22:02:00,
2013-02-21 17:07:00,18.9,12.9,30.41,North,0,2.0,5.0,77,0.00,,,0.00,meteohub,2013-02-21 22:07:00,
2013-02-21 17:12:00,18.9,13.1,30.41,NE,46,3.0,6.0,78,0.00,,,0.00,meteohub,2013-02-21 22:12:00,
2013-02-21 17:17:00,18.9,13.1,30.42,NE,47,0.0,6.0,78,0.00,,,0.00,meteohub,2013-02-21 22:17:00,
2013-02-21 17:22:00,18.7,12.9,30.43,NE,47,0.0,6.0,78,0.00,,,0.00,meteohub,2013-02-21 22:22:00,
2013-02-21 17:27:00,18.7,12.9,30.44,NNE,30,1.0,3.0,78,0.00,,,0.00,meteohub,2013-02-21 22:27:00,
2013-02-21 17:32:00,18.7,12.9,30.43,NNE,30,0.0,3.0,78,0.00,,,0.00,meteohub,2013-02-21 22:32:00,
2013-02-21 17:37:00,18.7,13.3,30.43,NNE,29,2.0,4.0,79,0.00,,,0.00,meteohub,2013-02-21 22:37:00,
2013-02-21 17:42:00,18.7,13.3,30.44,NNE,29,0.0,4.0,79,0.00,,,0.00,meteohub,2013-02-21 22:42:00,
2013-02-21 17:47:00,18.5,12.7,30.45,NNE,29,0.0,4.0,78,0.00,,,0.00,meteohub,2013-02-21 22:47:00,
2013-02-21 17:52:00,18.5,12.7,30.45,NNE,29,0.0,3.0,78,0.00,,,0.00,meteohub,2013-02-21 22:52:00,
2013-02-21 17:57:00,18.3,12.6,30.44,NNE,29,0.0,2.0,78,0.00,,,0.00,meteohub,2013-02-21 22:57:00,
2013-02-21 18:02:00,18.3,12.9,30.45,NNE,29,0.0,2.0,79,0.00,,,0.00,meteohub,2013-02-21 23:02:00,
2013-02-21 18:07:00,18.3,12.6,30.45,NNE,29,0.0,1.0,78,0.00,,,0.00,meteohub,2013-02-21 23:07:00,
2013-02-21 18:12:00,18.1,12.7,30.44,NNE,29,0.0,1.0,79,0.00,,,0.00,meteohub,2013-02-21 23:12:00,
2013-02-21 18:17:00,18.0,12.6,30.44,NNE,29,0.0,1.0,79,0.00,,,0.00,meteohub,2013-02-21 23:17:00,
2013-02-21 18:22:00,18.0,12.6,30.45,NNE,29,0.0,0.0,79,0.00,,,0.00,meteohub,2013-02-21 23:22:00,
2013-02-21 18:27:00,17.8,12.7,30.45,NNE,29,0.0,0.0,80,0.00,,,0.00,meteohub,2013-02-21 23:27:00,
2013-02-21 18:32:00,17.4,12.4,30.45,NNE,29,0.0,0.0,80,0.00,,,0.00,meteohub,2013-02-21 23:32:00,
2013-02-21 18:37:00,17.2,12.2,30.45,NNE,29,0.0,0.0,80,0.00,,,0.00,meteohub,2013-02-21 23:37:00,
2013-02-21 18:42:00,17.1,12.0,30.45,NNE,29,0.0,0.0,80,0.00,,,0.00,meteohub,2013-02-21 23:42:00,
2013-02-21 18:47:00,16.9,12.0,30.45,NNE,29,0.0,0.0,81,0.00,,,0.00,meteohub,2013-02-21 23:47:00,
2013-02-21 18:52:00,16.7,12.2,30.44,NNE,29,0.0,0.0,82,0.00,,,0.00,meteohub,2013-02-21 23:52:00,
2013-02-21 18:57:00,16.5,12.0,30.44,NNE,29,0.0,1.0,82,0.00,,,0.00,meteohub,2013-02-21 23:57:00,
2013-02-21 19:02:00,16.3,11.8,30.43,NNE,29,0.0,1.0,82,0.00,,,0.00,meteohub,2013-02-22 00:02:00,
2013-02-21 19:07:00,16.0,11.5,30.44,NNE,29,0.0,1.0,82,0.00,,,0.00,meteohub,2013-02-22 00:07:00,
2013-02-21 19:12:00,15.8,11.5,30.44,NNE,29,0.0,0.0,83,0.00,,,0.00,meteohub,2013-02-22 00:12:00,
2013-02-21 19:17:00,15.6,11.7,30.44,NNE,29,0.0,0.0,84,0.00,,,0.00,meteohub,2013-02-22 00:17:00,
2013-02-21 19:22:00,15.6,11.7,30.44,NNE,29,0.0,1.0,84,0.00,,,0.00,meteohub,2013-02-22 00:22:00,
2013-02-21 19:27:00,15.4,11.5,30.44,NNE,29,0.0,1.0,84,0.00,,,0.00,meteohub,2013-02-22 00:27:00,
2013-02-21 19:32:00,15.3,11.5,30.43,NNE,29,0.0,0.0,85,0.00,,,0.00,meteohub,2013-02-22 00:32:00,
2013-02-21 19:37:00,15.3,11.5,30.44,NNE,29,0.0,1.0,85,0.00,,,0.00,meteohub,2013-02-22 00:37:00,
2013-02-21 19:42:00,15.3,11.8,30.44,East,93,0.0,2.0,86,0.00,,,0.00,meteohub,2013-02-22 00:42:00,
2013-02-21 19:47:00,15.3,11.5,30.44,East,93,0.0,2.0,85,0.00,,,0.00,meteohub,2013-02-22 00:47:00,
2013-02-21 19:52:00,15.4,12.0,30.44,East,93,0.0,2.0,86,0.00,,,0.00,meteohub,2013-02-22 00:52:00,
2013-02-21 19:57:00,15.4,12.0,30.44,East,93,0.0,0.0,86,0.00,,,0.00,meteohub,2013-02-22 00:57:00,
2013-02-21 20:02:00,15.3,11.5,30.44,East,93,0.0,1.0,85,0.00,,,0.00,meteohub,2013-02-22 01:02:00,
2013-02-21 20:07:00,15.3,11.5,30.44,East,93,0.0,1.0,85,0.00,,,0.00,meteohub,2013-02-22 01:07:00,
2013-02-21 20:12:00,15.3,11.8,30.45,East,93,0.0,1.0,86,0.00,,,0.00,meteohub,2013-02-22 01:12:00,
2013-02-21 20:17:00,15.3,11.5,30.44,East,93,0.0,1.0,85,0.00,,,0.00,meteohub,2013-02-22 01:17:00,
2013-02-21 20:22:00,15.1,11.5,30.44,East,93,0.0,1.0,85,0.00,,,0.00,meteohub,2013-02-22 01:22:00,
2013-02-21 20:27:00,15.1,11.7,30.44,East,93,0.0,1.0,86,0.00,,,0.00,meteohub,2013-02-22 01:27:00,
2013-02-21 20:32:00,15.3,11.8,30.44,East,93,0.0,0.0,86,0.00,,,0.00,meteohub,2013-02-22 01:32:00,
2013-02-21 20:37:00,15.3,11.8,30.44,East,93,0.0,0.0,86,0.00,,,0.00,meteohub,2013-02-22 01:37:00,
2013-02-21 20:42:00,15.4,12.2,30.43,East,93,0.0,1.0,87,0.00,,,0.00,meteohub,2013-02-22 01:42:00,
2013-02-21 20:47:00,15.6,12.4,30.43,East,93,0.0,1.0,87,0.00,,,0.00,meteohub,2013-02-22 01:47:00,
2013-02-21 20:52:00,15.6,12.2,30.43,East,93,1.0,1.0,86,0.00,,,0.00,meteohub,2013-02-22 01:52:00,
2013-02-21 20:57:00,15.8,12.4,30.43,ESE,111,1.0,2.0,86,0.00,,,0.00,meteohub,2013-02-22 01:57:00,
2013-02-21 21:02:00,16.0,12.6,30.42,ESE,111,2.0,3.0,86,0.00,,,0.00,meteohub,2013-02-22 02:02:00,
2013-02-21 21:07:00,16.2,12.7,30.42,ESE,113,1.0,3.0,86,0.00,,,0.00,meteohub,2013-02-22 02:07:00,
2013-02-21 21:12:00,16.2,12.7,30.42,SE,131,3.0,3.0,86,0.00,,,0.00,meteohub,2013-02-22 02:12:00,
2013-02-21 21:17:00,16.2,12.7,30.42,ESE,120,3.0,5.0,86,0.00,,,0.00,meteohub,2013-02-22 02:17:00,
2013-02-21 21:22:00,16.2,12.7,30.42,SE,142,2.0,5.0,86,0.00,,,0.00,meteohub,2013-02-22 02:22:00,
2013-02-21 21:27:00,16.2,12.4,30.42,SE,145,2.0,5.0,85,0.00,,,0.00,meteohub,2013-02-22 02:27:00,
2013-02-21 21:33:00,16.2,12.7,30.42,ESE,120,0.0,5.0,86,0.00,,,0.00,meteohub,2013-02-22 02:33:00,
2013-02-21 21:38:00,16.0,12.6,30.41,SE,146,2.0,4.0,86,0.00,,,0.00,meteohub,2013-02-22 02:38:00,
2013-02-21 21:43:00,16.0,12.6,30.40,SE,132,1.0,4.0,86,0.00,,,0.00,meteohub,2013-02-22 02:43:00,
2013-02-21 21:48:00,16.0,12.6,30.40,SE,134,2.0,4.0,86,0.00,,,0.00,meteohub,2013-02-22 02:48:00,
2013-02-21 21:53:00,15.8,12.4,30.41,SE,128,2.0,5.0,86,0.00,,,0.00,meteohub,2013-02-22 02:53:00,
2013-02-21 21:58:00,16.0,12.6,30.41,SE,141,6.0,6.0,86,0.00,,,0.00,meteohub,2013-02-22 02:58:00,
2013-02-21 22:03:00,16.0,12.6,30.40,SE,132,5.0,7.0,86,0.00,,,0.00,meteohub,2013-02-22 03:03:00,
2013-02-21 22:08:00,16.0,12.6,30.40,ESE,122,2.0,7.0,86,0.00,,,0.00,meteohub,2013-02-22 03:08:00,
2013-02-21 22:13:00,16.0,12.6,30.40,SE,130,3.0,7.0,86,0.00,,,0.00,meteohub,2013-02-22 03:13:00,
2013-02-21 22:18:00,16.0,12.6,30.40,SE,139,3.0,6.0,86,0.00,,,0.00,meteohub,2013-02-22 03:18:00,
2013-02-21 22:24:00,16.0,12.7,30.40,SE,130,5.0,6.0,87,0.00,,,0.00,meteohub,2013-02-22 03:24:00,
2013-02-21 22:29:00,16.0,12.7,30.40,SE,145,6.0,9.0,87,0.00,,,0.00,meteohub,2013-02-22 03:29:00,
2013-02-21 22:34:00,16.0,12.7,30.39,SSE,149,5.0,9.0,87,0.00,,,0.00,meteohub,2013-02-22 03:34:00,
2013-02-21 22:39:00,16.0,12.6,30.39,SSE,153,2.0,9.0,86,0.00,,,0.00,meteohub,2013-02-22 03:39:00,
2013-02-21 22:44:00,15.8,12.6,30.39,SE,145,2.0,9.0,87,0.00,,,0.00,meteohub,2013-02-22 03:44:00,
2013-02-21 22:49:00,15.8,12.6,30.39,SSE,155,5.0,9.0,87,0.00,,,0.00,meteohub,2013-02-22 03:49:00,
2013-02-21 22:54:00,15.6,12.4,30.39,SE,146,6.0,8.0,87,0.00,,,0.00,meteohub,2013-02-22 03:54:00,
2013-02-21 22:59:00,15.6,12.4,30.39,SSE,159,4.0,9.0,87,0.00,,,0.00,meteohub,2013-02-22 03:59:00,
2013-02-21 23:04:00,15.6,12.4,30.38,SSE,157,3.0,9.0,87,0.00,,,0.00,meteohub,2013-02-22 04:04:00,
2013-02-21 23:09:00,15.6,12.4,30.38,SSE,150,6.0,9.0,87,0.00,,,0.00,meteohub,2013-02-22 04:09:00,
2013-02-21 23:14:00,15.6,12.4,30.38,SSE,151,4.0,9.0,87,0.00,,,0.00,meteohub,2013-02-22 04:14:00,
2013-02-21 23:19:00,15.6,12.4,30.37,SE,139,5.0,9.0,87,0.00,,,0.00,meteohub,2013-02-22 04:19:00,
2013-02-21 23:24:00,15.4,12.2,30.37,SE,135,7.0,10.0,87,0.00,,,0.00,meteohub,2013-02-22 04:24:00,
2013-02-21 23:29:00,15.4,12.2,30.37,SE,143,4.0,10.0,87,0.00,,,0.00,meteohub,2013-02-22 04:29:00,
2013-02-21 23:34:00,15.4,12.2,30.37,South,174,4.0,10.0,87,0.00,,,0.00,meteohub,2013-02-22 04:34:00,
2013-02-21 23:39:00,15.4,12.2,30.36,SE,136,6.0,10.0,87,0.00,,,0.00,meteohub,2013-02-22 04:39:00,
2013-02-21 23:44:00,15.4,12.2,30.37,SSE,167,5.0,10.0,87,0.00,,,0.00,meteohub,2013-02-22 04:44:00,
2013-02-21 23:50:00,15.4,12.2,30.37,SE,144,6.0,10.0,87,0.00,,,0.00,meteohub,2013-02-22 04:50:00,
2013-02-21 23:55:00,15.4,12.2,30.37,SSE,154,4.0,10.0,87,0.00,,,0.00,meteohub,2013-02-22 04:55:00,